CW9476 Weather Reports


time (UTC)temp
F
wind
direction
speed
knots
gust
knots
rain 1hr
in
rain 24hr
in
rain mn
in
humidity
%
barometer
mb
20260510095128 50 167 0.0 0.0 0.00 0.26 0.00 94 1011.7
20260510094628 50 167 0.0 0.0 0.00 0.26 0.00 94 1011.7
20260510094128 50 167 0.0 0.0 0.00 0.26 0.00 94 1011.7
20260510093628 50 167 0.0 0.0 0.00 0.26 0.00 94 1011.6
20260510092628 50 167 0.0 0.0 0.00 0.26 0.00 94 1011.6
20260510092128 50 167 0.0 0.0 0.00 0.26 0.00 94 1011.6
20260510091628 50 167 0.0 0.0 0.00 0.26 0.00 94 1011.5
20260510091128 50 167 0.0 0.0 0.00 0.26 0.00 94 1011.5
20260510090628 50 167 0.0 0.9 0.00 0.26 0.00 94 1011.5
20260510090127 50 167 0.0 0.9 0.00 0.26 0.00 94 1011.4
20260510085628 51 167 0.0 0.9 0.00 0.26 0.00 94 1011.4
20260510085128 51 167 0.0 2.6 0.00 0.26 0.00 94 1011.3
20260510084627 51 167 0.0 2.6 0.00 0.26 0.00 94 1011.2
20260510084128 51 167 0.0 0.9 0.00 0.26 0.00 94 1011.2
20260510083128 51 167 0.0 0.0 0.00 0.26 0.00 94 1011.3
20260510081127 51 167 0.0 2.6 0.00 0.26 0.00 94 1011.4
20260510080627 51 167 0.0 2.6 0.00 0.26 0.00 94 1011.5
20260510075627 51 202 0.9 1.7 0.00 0.26 0.00 94 1011.5
20260510075127 51 198 0.9 0.9 0.00 0.26 0.00 94 1011.9
20260510074627 51 198 0.0 0.9 0.00 0.26 0.00 94 1012.2
20260510074127 51 198 0.0 0.9 0.00 0.26 0.00 94 1012.2
20260510073627 51 198 0.0 0.9 0.00 0.26 0.00 94 1012.0
20260510073127 51 198 0.0 0.9 0.00 0.26 0.00 94 1012.0
20260510072627 51 198 0.0 0.0 0.00 0.26 0.00 94 1012.1
20260510072127 51 198 0.0 0.0 0.00 0.26 0.00 94 1012.1
20260510071127 51 198 0.0 0.9 0.00 0.26 0.00 94 1012.2
20260510070627 51 198 0.0 0.9 0.00 0.26 0.00 94 1012.1
20260510070127 51 198 0.0 0.9 0.00 0.26 0.00 94 1012.1
20260510065627 51 198 0.0 2.6 0.00 0.26 0.00 94 1012.3
20260510065127 51 198 0.0 2.6 0.00 0.26 0.00 94 1012.4
20260510064627 51 192 0.0 0.9 0.00 0.27 0.00 94 1012.4
20260510064127 51 192 0.0 2.6 0.00 0.27 0.00 94 1012.4
20260510063627 51 192 0.0 2.6 0.00 0.27 0.00 94 1012.4
20260510063127 51 304 0.9 1.7 0.00 0.28 0.00 94 1012.6
20260510062627 51 344 0.9 1.7 0.00 0.28 0.00 94 1012.6
20260510062127 51 211 0.0 4.3 0.00 0.28 0.00 94 1012.0
20260510061127 51 215 0.0 1.7 0.00 0.28 0.00 94 1011.8
20260510060627 51 215 0.0 1.7 0.00 0.28 0.00 94 1011.7
20260510060127 51 162 0.0 0.9 0.00 0.28 0.00 94 1011.8
20260510055127 51 162 0.0 0.9 0.00 0.30 0.00 94 1012.3
20260510054627 51 162 0.0 1.7 0.00 0.31 0.00 94 1012.3
20260510054127 51 177 0.0 1.7 0.00 0.31 0.00 94 1012.2
20260510053626 51 184 0.9 2.6 0.00 0.31 0.00 94 1012.2
20260510053127 50 184 1.7 2.6 0.00 0.31 0.00 94 1012.1
20260510052627 50 283 0.9 1.7 0.00 0.31 0.00 94 1012.1
20260510051127 50 212 0.0 1.7 0.00 0.31 0.00 94 1012.1
20260510050627 50 212 0.9 1.7 0.00 0.31 0.00 94 1012.0
20260510050126 50 212 0.0 0.9 0.00 0.31 0.00 94 1011.8
20260510045627 50 212 0.0 0.9 0.00 0.31 0.00 94 1011.6
20260510045127 50 212 0.9 0.9 0.00 0.31 0.00 94 1011.6
20260510044626 50 212 0.9 1.7 0.00 0.31 0.00 94 1011.6
20260510044126 50 212 0.0 1.7 0.00 0.31 0.00 94 1011.6
20260510043126 50 212 0.0 0.9 0.00 0.31 0.00 94 1011.6
20260510042627 50 212 0.0 0.9 0.00 0.31 0.00 93 1011.6
20260510042126 50 212 0.0 0.9 0.00 0.31 0.00 93 1011.8
20260510041626 50 212 0.9 0.9 0.00 0.31 0.00 93 1011.7
20260510041126 50 212 0.0 2.6 0.00 0.31 0.00 93 1011.8
20260510040626 50 212 0.9 2.6 0.00 0.31 0.00 93 1011.7
20260510035626 50 134 0.9 1.7 0.00 0.31 0.31 93 1011.6
20260510035126 50 134 0.9 1.7 0.00 0.31 0.31 94 1011.4
20260510033626 49 134 0.0 0.0 0.00 0.31 0.31 93 1011.3
20260510030626 50 134 0.0 0.0 0.00 0.31 0.31 93 1011.2
20260510025626 50 134 0.0 0.0 0.00 0.31 0.31 93 1011.0
20260510025126 50 134 0.0 0.0 0.00 0.31 0.31 93 1011.1
20260510024626 50 134 0.0 0.0 0.00 0.31 0.31 93 1011.2
20260510024126 50 134 0.0 0.0 0.00 0.31 0.31 93 1011.3
20260510023626 51 134 0.0 0.0 0.00 0.31 0.31 93 1011.5
20260510023126 51 134 0.0 0.0 0.00 0.31 0.31 93 1011.4
20260510022626 51 134 0.0 0.0 0.00 0.31 0.31 93 1011.3
20260510022126 51 134 0.0 0.9 0.00 0.31 0.31 93 1011.3
20260510021626 51 134 0.0 1.7 0.00 0.31 0.31 93 1011.4
20260510021126 51 134 0.0 1.7 0.00 0.31 0.31 93 1011.4
20260510020626 51 134 0.0 1.7 0.00 0.31 0.31 93 1011.3
20260510020126 51 134 0.0 0.0 0.00 0.31 0.31 93 1011.3
20260510015126 52 134 0.0 0.9 0.00 0.31 0.31 93 1011.1
20260510014626 52 134 0.0 0.9 0.00 0.31 0.31 93 1011.2
20260510014126 52 182 0.0 0.9 0.00 0.31 0.31 93 1011.3
20260510013626 52 182 0.0 0.9 0.00 0.31 0.31 93 1011.3
20260510013125 52 182 0.0 0.9 0.00 0.31 0.31 93 1011.2
20260510012626 52 182 0.0 0.9 0.00 0.31 0.31 93 1011.2
20260510012126 52 182 0.0 0.9 0.00 0.31 0.31 93 1011.1
20260510011626 52 182 0.0 0.9 0.00 0.31 0.31 93 1010.9
20260510011126 52 182 0.0 0.9 0.00 0.31 0.31 93 1010.8
20260510010625 52 182 0.0 0.0 0.00 0.31 0.31 93 1010.9
20260510005125 52 182 0.0 0.0 0.00 0.31 0.31 93 1010.9
20260510004625 52 182 0.0 0.9 0.00 0.31 0.31 93 1010.7
20260510004125 52 182 0.0 0.9 0.00 0.31 0.31 93 1010.7
20260510003625 52 182 0.0 0.9 0.00 0.31 0.31 93 1010.6
20260510003125 52 182 0.0 0.0 0.00 0.31 0.31 93 1010.7
20260510002625 52 182 0.0 0.0 0.00 0.31 0.31 93 1010.6
20260510002125 52 182 0.0 0.0 0.00 0.31 0.31 93 1010.4
20260510001625 52 182 0.0 0.0 0.00 0.31 0.31 93 1010.4
20260510001125 52 182 0.0 0.9 0.00 0.31 0.31 93 1010.5
20260510000625 52 182 0.0 0.9 0.00 0.31 0.31 93 1010.4
20260510000125 53 182 0.0 1.7 0.00 0.31 0.31 93 1010.4
20260509235125 53 182 0.0 1.7 0.00 0.31 0.31 93 1010.3
20260509234625 53 131 0.0 1.7 0.00 0.31 0.31 93 1010.4
20260509234125 53 185 0.0 2.6 0.00 0.31 0.31 93 1010.3
20260509233125 53 163 0.9 1.7 0.00 0.31 0.31 93 1010.1
20260509232125 53 191 0.0 1.7 0.00 0.31 0.31 93 1009.8
20260509231625 54 131 0.9 1.7 0.00 0.31 0.31 93 1009.8
20260509231125 54 193 0.0 1.7 0.00 0.31 0.31 93 1009.8
20260509230125 54 175 0.9 1.7 0.00 0.31 0.31 93 1010.0
20260509225625 54 139 0.9 1.7 0.00 0.31 0.31 93 1010.0
20260509225125 54 140 1.7 3.5 0.00 0.31 0.31 93 1010.0
20260509224625 54 242 0.9 3.5 0.00 0.31 0.31 93 1009.9
20260509224125 54 100 1.7 3.5 0.00 0.31 0.31 93 1009.9
20260509223124 54 188 0.9 0.9 0.00 0.31 0.31 93 1010.2
20260509222625 54 149 0.0 1.7 0.00 0.31 0.31 93 1010.1
20260509221624 54 171 0.0 3.5 0.00 0.31 0.31 93 1010.2
20260509220625 54 221 0.0 4.3 0.00 0.31 0.31 94 1010.1
20260509220125 54 153 0.9 4.3 0.00 0.31 0.31 94 1010.2
20260509215625 53 236 0.9 2.6 0.00 0.31 0.31 94 1010.2
20260509215124 53 175 0.9 2.6 0.00 0.31 0.31 93 1010.4
20260509214624 53 206 0.9 1.7 0.00 0.31 0.31 93 1010.3
20260509214124 54 234 0.9 1.7 0.00 0.31 0.31 94 1010.4
20260509213624 53 137 0.0 1.7 0.00 0.31 0.31 94 1010.2
20260509212124 52 148 0.0 0.9 0.01 0.31 0.31 93 1010.3
20260509211124 52 148 0.0 0.9 0.01 0.31 0.31 93 1010.2
20260509210624 52 148 0.0 0.9 0.01 0.31 0.31 93 1010.1
20260509210124 52 148 0.0 0.9 0.02 0.31 0.31 93 1010.3
20260509205624 52 148 0.0 0.9 0.02 0.31 0.31 93 1010.3
20260509205124 52 148 0.0 1.7 0.02 0.31 0.31 93 1010.4
20260509204624 52 148 0.0 1.7 0.02 0.31 0.31 93 1010.4
20260509204124 52 256 0.0 1.7 0.02 0.31 0.31 93 1010.4
20260509203624 52 208 0.0 1.7 0.02 0.31 0.31 93 1010.3
20260509203124 52 208 0.9 1.7 0.03 0.31 0.31 93 1010.6
20260509202624 52 208 0.0 0.9 0.03 0.30 0.30 93 1010.5
20260509202124 52 208 0.0 1.7 0.03 0.30 0.30 93 1010.5
20260509201624 52 208 0.0 1.7 0.04 0.30 0.30 93 1010.6
20260509201124 52 222 0.9 1.7 0.05 0.30 0.30 93 1010.7
20260509200624 52 222 0.0 1.7 0.05 0.30 0.30 93 1010.7
20260509195624 52 222 0.0 0.9 0.06 0.29 0.29 93 1010.8
20260509195124 52 222 0.0 1.7 0.06 0.29 0.29 93 1011.0
20260509194624 52 222 0.0 1.7 0.07 0.29 0.29 93 1011.2
20260509194124 51 222 0.0 1.7 0.07 0.29 0.29 93 1011.2
20260509193624 51 222 0.9 1.7 0.08 0.29 0.29 93 1011.3
20260509193124 51 223 0.0 2.6 0.08 0.28 0.28 93 1011.4
20260509192624 51 168 0.0 2.6 0.08 0.27 0.27 93 1011.4
20260509192124 51 209 0.9 2.6 0.09 0.27 0.27 93 1011.5
20260509191124 51 221 0.9 3.5 0.08 0.26 0.25 93 1011.6
20260509190624 52 119 0.9 3.5 0.10 0.26 0.25 93 1011.6
20260509190124 52 238 0.9 4.3 0.09 0.25 0.24 93 1011.7
20260509185624 52 272 0.0 8.7 0.09 0.24 0.23 93 1011.7
20260509185124 52 261 1.7 8.7 0.10 0.24 0.23 93 1011.7
20260509184624 52 76 0.9 3.5 0.10 0.23 0.22 93 1011.7
20260509184123 52 11 0.0 3.5 0.11 0.23 0.22 93 1011.7
20260509183624 52 271 0.0 2.6 0.10 0.22 0.21 93 1011.9
20260509183123 52 174 0.9 2.6 0.09 0.21 0.20 93 1011.8
20260509181623 52 279 1.7 2.6 0.07 0.18 0.17 93 1011.8
20260509181123 53 221 1.7 2.6 0.07 0.18 0.17 93 1012.1
20260509180623 52 204 0.9 2.6 0.05 0.16 0.15 93 1012.0
20260509180124 52 229 0.0 1.7 0.05 0.16 0.15 93 1012.0
20260509175623 52 233 0.0 1.7 0.04 0.16 0.14 93 1012.0
20260509175124 52 233 0.9 1.7 0.03 0.16 0.13 93 1012.0
20260509174623 52 251 0.9 2.6 0.02 0.15 0.12 93 1011.9
20260509174123 52 223 0.0 2.6 0.01 0.14 0.11 93 1011.9
20260509173623 52 227 0.0 1.7 0.01 0.14 0.11 93 1011.8
20260509173123 52 215 0.9 1.7 0.01 0.14 0.11 93 1011.8
20260509172623 52 188 0.0 3.5 0.01 0.14 0.11 93 1011.8
20260509172123 52 244 0.0 3.5 0.02 0.14 0.11 93 1011.9
20260509171623 52 213 0.0 1.7 0.01 0.13 0.10 93 1011.9
20260509171123 52 213 0.0 1.7 0.01 0.13 0.10 93 1011.9
20260509170623 52 169 0.0 1.7 0.01 0.13 0.10 93 1011.8
20260509165623 52 221 0.9 2.6 0.01 0.13 0.10 93 1011.8
20260509164623 52 228 0.9 2.6 0.01 0.13 0.10 93 1011.7
20260509164123 52 228 0.9 4.3 0.01 0.13 0.10 93 1011.8
20260509163623 52 202 0.9 4.3 0.01 0.13 0.10 93 1012.0
20260509163123 52 119 4.3 4.3 0.01 0.13 0.10 93 1012.0
20260509162623 52 202 0.9 1.7 0.02 0.13 0.10 93 1012.0
20260509162123 52 198 0.9 2.6 0.01 0.12 0.09 93 1012.0
20260509161623 52 292 0.9 2.6 0.02 0.12 0.09 93 1012.0
20260509161123 52 167 0.9 2.6 0.02 0.12 0.09 93 1011.7
20260509160623 51 167 0.0 2.6 0.02 0.12 0.09 93 1011.7
20260509160123 51 167 0.9 2.6 0.02 0.12 0.09 93 1011.8
20260509155623 51 219 0.9 1.7 0.02 0.12 0.09 93 1012.0
20260509155123 51 96 0.0 0.9 0.02 0.12 0.09 93 1012.0
20260509154623 51 159 0.9 1.7 0.02 0.12 0.09 93 1012.2
20260509154123 51 155 0.0 1.7 0.02 0.12 0.09 93 1012.4
20260509153123 50 163 0.9 1.7 0.02 0.12 0.09 93 1012.6
20260509152623 50 123 0.0 1.7 0.01 0.11 0.08 93 1012.6
20260509152123 50 123 0.9 1.7 0.02 0.11 0.08 93 1012.5
20260509151623 50 123 0.9 1.7 0.01 0.10 0.07 93 1012.7
20260509151123 50 123 0.0 0.9 0.01 0.10 0.07 93 1012.5
20260509150123 50 123 0.0 1.7 0.01 0.10 0.07 93 1012.4
20260509145623 50 123 0.0 1.7 0.01 0.10 0.07 93 1012.4
20260509145123 49 123 0.0 0.9 0.01 0.10 0.07 93 1012.3
20260509144623 49 123 0.0 0.9 0.01 0.10 0.07 93 1012.3
20260509144122 49 123 0.0 1.7 0.01 0.10 0.07 93 1012.4
20260509143623 49 123 0.9 1.7 0.01 0.10 0.07 93 1012.4
20260509143123 49 113 1.7 1.7 0.01 0.10 0.07 93 1012.4
20260509142623 49 144 0.0 0.9 0.01 0.10 0.07 93 1012.4
20260509141622 49 144 0.9 1.7 0.00 0.09 0.06 93 1012.3
20260509141122 49 96 0.0 1.7 0.00 0.09 0.06 93 1012.0
20260509140122 49 172 0.0 2.6 0.00 0.09 0.06 93 1012.3
20260509135122 49 178 0.0 1.7 0.00 0.09 0.06 93 1012.5
20260509134622 49 178 0.0 1.7 0.00 0.09 0.06 93 1012.4
20260509134122 48 178 0.0 0.9 0.00 0.09 0.06 93 1012.3
20260509133622 48 178 0.0 0.9 0.00 0.09 0.06 93 1012.3
20260509133122 48 178 0.0 0.9 0.00 0.09 0.06 93 1012.4
20260509132622 48 178 0.0 0.9 0.00 0.09 0.06 93 1012.5
20260509132122 48 178 0.0 0.9 0.00 0.09 0.06 93 1012.7
20260509131622 48 178 0.9 0.9 0.00 0.09 0.06 93 1012.7
20260509131122 48 178 0.0 0.9 0.00 0.09 0.06 93 1012.7
20260509130622 48 178 0.0 1.7 0.00 0.09 0.06 93 1012.8
20260509130122 48 178 0.0 1.7 0.00 0.09 0.06 93 1012.8
20260509125622 48 178 0.0 1.7 0.00 0.09 0.06 93 1012.7
20260509124622 48 178 0.0 0.9 0.00 0.09 0.06 93 1012.7
20260509124122 48 192 0.0 1.7 0.00 0.09 0.06 93 1012.7
20260509123622 48 192 0.0 1.7 0.00 0.09 0.06 93 1012.7
20260509123122 48 132 0.9 1.7 0.00 0.09 0.06 93 1012.8
20260509122622 48 204 0.9 0.9 0.01 0.09 0.06 93 1012.9
20260509122122 48 204 0.0 1.7 0.01 0.09 0.06 92 1013.0
20260509121622 48 204 0.9 1.7 0.01 0.09 0.06 92 1012.8
20260509121122 48 212 0.0 0.0 0.01 0.09 0.06 92 1012.5
20260509120622 47 282 0.0 0.0 0.01 0.09 0.06 92 1012.1
20260509115622 47 298 0.0 0.0 0.01 0.09 0.06 92 1012.2
20260509115122 47 65 0.0 0.0 0.01 0.09 0.06 92 1012.3
20260509114122 47 350 0.0 0.0 0.01 0.09 0.06 92 1012.5
20260509113622 47 112 0.0 0.0 0.01 0.09 0.06 92 1012.3
20260509112622 47 193 0.0 0.0 0.00 0.08 0.05 92 1012.4
20260509112121 47 193 0.0 0.0 0.00 0.08 0.05 92 1012.5
20260509111621 47 193 0.0 0.0 0.00 0.08 0.05 92 1012.6
20260509111122 47 193 0.0 0.0 0.00 0.08 0.05 92 1012.5
20260509110621 47 193 0.0 0.0 0.00 0.08 0.05 92 1012.7
20260509110121 47 193 0.0 0.0 0.00 0.08 0.05 92 1012.6
20260509105621 47 193 0.0 0.0 0.00 0.08 0.05 92 1012.7
20260509104621 47 214 0.0 0.0 0.00 0.08 0.05 92 1012.7
20260509103621 47 205 0.0 0.0 0.00 0.08 0.05 91 1012.8
20260509103121 47 107 0.0 0.0 0.00 0.08 0.05 91 1012.7
20260509102621 47 107 0.0 0.0 0.00 0.08 0.05 91 1012.7
20260509102121 47 107 0.0 0.0 0.00 0.08 0.05 91 1012.7
20260509101621 47 107 0.0 0.0 0.00 0.08 0.05 91 1012.6
20260509101121 47 107 0.0 0.0 0.00 0.08 0.05 91 1012.4
20260509100621 47 107 0.0 0.0 0.00 0.08 0.05 91 1012.4
20260509100121 47 107 0.0 0.0 0.00 0.08 0.05 91 1012.5